Location: Dentlein
(49.1477°N, 10.4231°E)
Time: 04:41:01
(UTC+00:00)

ISS - Visible Passes

Search period start: 14 July 2024 00:00
Search period end: 24 July 2024 00:00
Orbit: 410 x 424 km, 51.6° (Epoch: 13 July)

Date Brightness Start Highest point End Pass type
(mag) Time Alt. Az. Time Alt. Az. Time Alt. Az.
14 Jul -3.1 21:02:41 10° W 21:05:57 56° N 21:09:14 10° ENE visible
14 Jul -3.5 22:39:38 10° WNW 22:42:57 68° NNE 22:44:29 29° E visible
15 Jul -1.6 00:16:30 10° W 00:17:20 16° W 00:17:20 16° W visible
15 Jul -3.3 20:14:19 10° W 20:17:37 64° NNW 20:20:56 10° ENE visible
15 Jul -3.2 21:51:19 10° WNW 21:54:36 58° N 21:57:16 15° E visible
15 Jul -2.6 23:28:07 10° WNW 23:30:07 31° W 23:30:07 31° W visible
16 Jul -3.0 21:02:56 10° WNW 21:06:13 53° N 21:09:29 10° E visible
16 Jul -3.9 22:39:46 10° WNW 22:43:01 74° SW 22:43:01 74° SW visible
17 Jul -3.0 20:14:30 10° W 20:17:46 53° N 20:21:03 10° ENE visible
17 Jul -3.8 21:51:23 10° WNW 21:54:43 82° NNE 21:55:58 35° ESE visible
17 Jul -1.2 23:28:24 10° W 23:28:50 12° W 23:28:50 12° W visible
18 Jul -3.5 21:02:58 10° WNW 21:06:16 66° NNE 21:08:56 15° E visible
18 Jul -2.4 22:39:48 10° W 22:41:48 28° WSW 22:41:48 28° WSW visible
19 Jul -3.2 20:14:28 10° WNW 20:17:45 57° N 20:21:03 10° E visible
19 Jul -3.7 21:51:16 10° WNW 21:54:32 55° SSW 21:54:47 53° S visible
20 Jul -3.9 21:02:44 10° WNW 21:06:03 78° SSW 21:07:47 26° ESE visible
20 Jul -1.3 22:40:04 10° W 22:40:39 13° WSW 22:40:39 13° WSW visible
21 Jul -3.7 20:14:11 10° WNW 20:17:30 80° NNE 20:20:47 10° ESE visible
21 Jul -2.4 21:51:09 10° W 21:53:39 26° SW 21:53:39 26° SW visible
22 Jul -3.1 21:02:24 10° WNW 21:05:32 40° SSW 21:06:38 29° SSE visible
23 Jul -3.6 20:13:41 10° WNW 20:16:58 59° SSW 20:19:38 14° SE visible
23 Jul -1.3 21:51:39 10° WSW 21:52:30 12° WSW 21:52:30 12° WSW visible
